Year,Month,Day,Hour,Minute,Value (Times are PST for temperature in C)
2015,06,28,00,00,26.00
2015,06,28,00,01,26.00
2015,06,28,00,02,26.00
2015,06,28,00,03,26.00
2015,06,28,00,04,26.00
2015,06,28,00,05,26.00
2015,06,28,00,06,26.00
2015,06,28,00,07,26.00
2015,06,28,00,08,26.00
2015,06,28,00,09,26.00
2015,06,28,00,10,26.10
2015,06,28,00,11,26.10
2015,06,28,00,12,26.10
2015,06,28,00,13,26.10
2015,06,28,00,14,26.10
2015,06,28,00,15,26.10
2015,06,28,00,16,26.10
2015,06,28,00,17,26.10
2015,06,28,00,18,26.10
2015,06,28,00,19,26.20
2015,06,28,00,20,26.20
2015,06,28,00,21,26.20
2015,06,28,00,22,26.20
2015,06,28,00,23,26.20
2015,06,28,00,24,26.20
2015,06,28,00,25,26.20
2015,06,28,00,26,26.20
2015,06,28,00,27,26.20
2015,06,28,00,28,26.20
2015,06,28,00,29,26.20
2015,06,28,00,30,26.20
2015,06,28,00,31,26.20
2015,06,28,00,32,26.20
2015,06,28,00,33,26.20
2015,06,28,00,34,26.20
2015,06,28,00,35,26.20
2015,06,28,00,36,26.20
2015,06,28,00,37,26.20
2015,06,28,00,38,26.20
2015,06,28,00,39,26.20
2015,06,28,00,40,26.20
2015,06,28,00,41,26.20
2015,06,28,00,42,26.20
2015,06,28,00,43,26.20
2015,06,28,00,44,26.20
2015,06,28,00,45,26.20
2015,06,28,00,46,26.30
2015,06,28,00,47,26.30
2015,06,28,00,48,26.30
2015,06,28,00,49,26.30
2015,06,28,00,50,26.30
2015,06,28,00,51,26.30
2015,06,28,00,52,26.30
2015,06,28,00,53,26.30
2015,06,28,00,54,26.40
2015,06,28,00,55,26.40
2015,06,28,00,56,26.40
2015,06,28,00,57,26.40
2015,06,28,00,58,26.50
2015,06,28,00,59,26.50
2015,06,28,01,00,26.50
2015,06,28,01,01,26.50
2015,06,28,01,02,26.60
2015,06,28,01,03,26.60
2015,06,28,01,04,26.60
2015,06,28,01,05,26.60
2015,06,28,01,06,26.60
2015,06,28,01,07,26.60
2015,06,28,01,08,26.60
2015,06,28,01,09,26.60
2015,06,28,01,10,26.60
2015,06,28,01,11,26.60
2015,06,28,01,12,26.60
2015,06,28,01,13,26.60
2015,06,28,01,14,26.60
2015,06,28,01,15,26.60
2015,06,28,01,16,26.60
2015,06,28,01,17,26.60
2015,06,28,01,18,26.60
2015,06,28,01,19,26.60
2015,06,28,01,20,26.60
2015,06,28,01,21,26.60
2015,06,28,01,22,26.60
2015,06,28,01,23,26.60
2015,06,28,01,24,26.60
2015,06,28,01,25,26.60
2015,06,28,01,26,26.60
2015,06,28,01,27,26.60
2015,06,28,01,28,26.60
2015,06,28,01,29,26.60
2015,06,28,01,30,26.60
2015,06,28,01,31,26.60
2015,06,28,01,32,26.60
2015,06,28,01,33,26.60
2015,06,28,01,34,26.60
2015,06,28,01,35,26.60
2015,06,28,01,36,26.60
2015,06,28,01,37,26.60
2015,06,28,01,38,26.50
2015,06,28,01,39,26.50
2015,06,28,01,40,26.50
2015,06,28,01,41,26.50
2015,06,28,01,42,26.40
2015,06,28,01,43,26.40
2015,06,28,01,44,26.40
2015,06,28,01,45,26.30
2015,06,28,01,46,26.30
2015,06,28,01,47,26.30
2015,06,28,01,48,26.30
2015,06,28,01,49,26.20
2015,06,28,01,50,26.20
2015,06,28,01,51,26.20
2015,06,28,01,52,26.10
2015,06,28,01,53,26.10
2015,06,28,01,54,26.10
2015,06,28,01,55,26.10
2015,06,28,01,56,26.00
2015,06,28,01,57,26.00
2015,06,28,01,58,25.90
2015,06,28,01,59,25.90
2015,06,28,02,00,25.90
2015,06,28,02,01,25.80
2015,06,28,02,02,25.80
2015,06,28,02,03,25.80
2015,06,28,02,04,25.80
2015,06,28,02,05,25.80
2015,06,28,02,06,25.70
2015,06,28,02,07,25.70
2015,06,28,02,08,25.70
2015,06,28,02,09,25.70
2015,06,28,02,10,25.60
2015,06,28,02,11,25.60
2015,06,28,02,12,25.60
2015,06,28,02,13,25.60
2015,06,28,02,14,25.60
2015,06,28,02,15,25.60
2015,06,28,02,16,25.60
2015,06,28,02,17,25.60
2015,06,28,02,18,25.60
2015,06,28,02,19,25.60
2015,06,28,02,20,25.60
2015,06,28,02,21,25.60
2015,06,28,02,22,25.60
2015,06,28,02,23,25.60
2015,06,28,02,24,25.60
2015,06,28,02,25,25.60
2015,06,28,02,26,25.60
2015,06,28,02,27,25.60
2015,06,28,02,28,25.60
2015,06,28,02,29,25.60
2015,06,28,02,30,25.50
2015,06,28,02,31,25.50
2015,06,28,02,32,25.50
2015,06,28,02,33,25.50
2015,06,28,02,34,25.50
2015,06,28,02,35,25.50
2015,06,28,02,36,25.40
2015,06,28,02,37,25.40
2015,06,28,02,38,25.40
2015,06,28,02,39,25.40
2015,06,28,02,40,25.40
2015,06,28,02,41,25.30
2015,06,28,02,42,25.30
2015,06,28,02,43,25.30
2015,06,28,02,44,25.30
2015,06,28,02,45,25.30
2015,06,28,02,46,25.20
2015,06,28,02,47,25.20
2015,06,28,02,48,25.10
2015,06,28,02,49,25.10
2015,06,28,02,50,25.10
2015,06,28,02,51,25.00
2015,06,28,02,52,24.90
2015,06,28,02,53,24.90
2015,06,28,02,54,24.90
2015,06,28,02,55,24.80
2015,06,28,02,56,24.80
2015,06,28,02,57,24.70
2015,06,28,02,58,24.70
2015,06,28,02,59,24.60
2015,06,28,03,00,24.60
2015,06,28,03,01,24.50
2015,06,28,03,02,24.50
2015,06,28,03,03,24.50
2015,06,28,03,04,24.40
2015,06,28,03,05,24.40
2015,06,28,03,06,24.40
2015,06,28,03,07,24.40
2015,06,28,03,08,24.40
2015,06,28,03,09,24.40
2015,06,28,03,10,24.40
2015,06,28,03,11,24.40
2015,06,28,03,12,24.40
2015,06,28,03,13,24.40
2015,06,28,03,14,24.40
2015,06,28,03,15,24.30
2015,06,28,03,16,24.30
2015,06,28,03,17,24.30
2015,06,28,03,18,24.20
2015,06,28,03,19,24.20
2015,06,28,03,20,24.20
2015,06,28,03,21,24.10
2015,06,28,03,22,24.10
2015,06,28,03,23,24.10
2015,06,28,03,24,24.00
2015,06,28,03,25,24.00
2015,06,28,03,26,23.90
2015,06,28,03,27,23.90
2015,06,28,03,28,23.80
2015,06,28,03,29,23.80
2015,06,28,03,30,23.70
2015,06,28,03,31,23.70
2015,06,28,03,32,23.70
2015,06,28,03,33,23.60
2015,06,28,03,34,23.60
2015,06,28,03,35,23.60
2015,06,28,03,36,23.60
2015,06,28,03,37,23.60
2015,06,28,03,38,23.60
2015,06,28,03,39,23.60
2015,06,28,03,40,23.70
2015,06,28,03,41,23.70
2015,06,28,03,42,23.70
2015,06,28,03,43,23.70
2015,06,28,03,44,23.70
2015,06,28,03,45,23.70
2015,06,28,03,46,23.70
2015,06,28,03,47,23.70
2015,06,28,03,48,23.60
2015,06,28,03,49,23.60
2015,06,28,03,50,23.60
2015,06,28,03,51,23.60
2015,06,28,03,52,23.50
2015,06,28,03,53,23.50
2015,06,28,03,54,23.40
2015,06,28,03,55,23.40
2015,06,28,03,56,23.40
2015,06,28,03,57,23.40
2015,06,28,03,58,23.40
2015,06,28,03,59,23.40
2015,06,28,04,00,23.40
2015,06,28,04,01,23.40
2015,06,28,04,02,23.30
2015,06,28,04,03,23.30
2015,06,28,04,04,23.30
2015,06,28,04,05,23.30
2015,06,28,04,06,23.30
2015,06,28,04,07,23.30
2015,06,28,04,08,23.30
2015,06,28,04,09,23.30
2015,06,28,04,10,23.30
2015,06,28,04,11,23.30
2015,06,28,04,12,23.30
2015,06,28,04,13,23.30
2015,06,28,04,14,23.30
2015,06,28,04,15,23.30
2015,06,28,04,16,23.30
2015,06,28,04,17,23.30
2015,06,28,04,18,23.30
2015,06,28,04,19,23.30
2015,06,28,04,20,23.30
2015,06,28,04,21,23.30
2015,06,28,04,22,23.30
2015,06,28,04,23,23.30
2015,06,28,04,24,23.30
2015,06,28,04,25,23.30
2015,06,28,04,26,23.20
2015,06,28,04,27,23.20
2015,06,28,04,28,23.20
2015,06,28,04,29,23.20
2015,06,28,04,30,23.20
2015,06,28,04,31,23.10
2015,06,28,04,32,23.10
2015,06,28,04,33,23.10
2015,06,28,04,34,23.10
2015,06,28,04,35,23.10
2015,06,28,04,36,23.00
2015,06,28,04,37,23.00
2015,06,28,04,38,23.00
2015,06,28,04,39,22.90
2015,06,28,04,40,22.90
2015,06,28,04,41,22.90
2015,06,28,04,42,22.80
2015,06,28,04,43,22.80
2015,06,28,04,44,22.80
2015,06,28,04,45,22.80
2015,06,28,04,46,22.80
2015,06,28,04,47,22.70
2015,06,28,04,48,22.70
2015,06,28,04,49,22.70
2015,06,28,04,50,22.60
2015,06,28,04,51,22.60
2015,06,28,04,52,22.60
2015,06,28,04,53,22.60
2015,06,28,04,54,22.60
2015,06,28,04,55,22.60
2015,06,28,04,56,22.60
2015,06,28,04,57,22.50
2015,06,28,04,58,22.50
2015,06,28,04,59,22.50
2015,06,28,05,00,22.50
2015,06,28,05,01,22.50
2015,06,28,05,02,22.50
2015,06,28,05,03,22.60
2015,06,28,05,04,22.60
2015,06,28,05,05,22.60
2015,06,28,05,06,22.60
2015,06,28,05,07,22.60
2015,06,28,05,08,22.60
2015,06,28,05,09,22.60
2015,06,28,05,10,22.60
2015,06,28,05,11,22.60
2015,06,28,05,12,22.60
2015,06,28,05,13,22.60
2015,06,28,05,14,22.60
2015,06,28,05,15,22.60
2015,06,28,05,16,22.60
2015,06,28,05,17,22.60
2015,06,28,05,18,22.60
2015,06,28,05,19,22.50
2015,06,28,05,20,22.50
2015,06,28,05,21,22.50
2015,06,28,05,22,22.50
2015,06,28,05,23,22.40
2015,06,28,05,24,22.40
2015,06,28,05,25,22.40
2015,06,28,05,26,22.40
2015,06,28,05,27,22.30
2015,06,28,05,28,22.30
2015,06,28,05,29,22.30
2015,06,28,05,30,22.20
2015,06,28,05,31,22.20
2015,06,28,05,32,22.20
2015,06,28,05,33,22.10
2015,06,28,05,34,22.10
2015,06,28,05,35,22.10
2015,06,28,05,36,22.00
2015,06,28,05,37,22.00
2015,06,28,05,38,22.00
2015,06,28,05,39,21.90
2015,06,28,05,40,21.90
2015,06,28,05,41,21.90
2015,06,28,05,42,21.90
2015,06,28,05,43,21.90
2015,06,28,05,44,21.90
2015,06,28,05,45,21.90
2015,06,28,05,46,21.90
2015,06,28,05,47,21.90
2015,06,28,05,48,21.90
2015,06,28,05,49,21.90
2015,06,28,05,50,21.90
2015,06,28,05,51,21.90
2015,06,28,05,52,21.90
2015,06,28,05,53,21.90
2015,06,28,05,54,21.90
2015,06,28,05,55,21.90
2015,06,28,05,56,21.90
2015,06,28,05,57,21.90
2015,06,28,05,58,21.90
2015,06,28,05,59,21.90
2015,06,28,06,00,21.90
2015,06,28,06,01,21.90
2015,06,28,06,02,22.00
2015,06,28,06,03,22.00
2015,06,28,06,04,22.10
2015,06,28,06,05,22.10
2015,06,28,06,06,22.10
2015,06,28,06,07,22.10
2015,06,28,06,08,22.20
2015,06,28,06,09,22.20
2015,06,28,06,10,22.20
2015,06,28,06,11,22.20
2015,06,28,06,12,22.30
2015,06,28,06,13,22.30
2015,06,28,06,14,22.30
2015,06,28,06,15,22.30
2015,06,28,06,16,22.30
2015,06,28,06,17,22.30
2015,06,28,06,18,22.30
2015,06,28,06,19,22.30
2015,06,28,06,20,22.30
2015,06,28,06,21,22.30
2015,06,28,06,22,22.30
2015,06,28,06,23,22.30
2015,06,28,06,24,22.30
2015,06,28,06,25,22.30
2015,06,28,06,26,22.30
2015,06,28,06,27,22.30
2015,06,28,06,28,22.30
2015,06,28,06,29,22.30
2015,06,28,06,30,22.30
2015,06,28,06,31,22.20
2015,06,28,06,32,22.20
2015,06,28,06,33,22.20
2015,06,28,06,34,22.20
2015,06,28,06,35,22.20
2015,06,28,06,36,22.20
2015,06,28,06,37,22.20
2015,06,28,06,38,22.20
2015,06,28,06,39,22.20
2015,06,28,06,40,22.10
2015,06,28,06,41,22.10
2015,06,28,06,42,22.10
2015,06,28,06,43,22.20
2015,06,28,06,44,22.20
2015,06,28,06,45,22.20
2015,06,28,06,46,22.20
2015,06,28,06,47,22.20
2015,06,28,06,48,22.30
2015,06,28,06,49,22.30
2015,06,28,06,50,22.30
2015,06,28,06,51,22.30
2015,06,28,06,52,22.40
2015,06,28,06,53,22.40
2015,06,28,06,54,22.40
2015,06,28,06,55,22.50
2015,06,28,06,56,22.50
2015,06,28,06,57,22.50
2015,06,28,06,58,22.60
2015,06,28,06,59,22.60
2015,06,28,07,00,22.60
2015,06,28,07,01,22.70
2015,06,28,07,02,22.70
2015,06,28,07,03,22.70
2015,06,28,07,04,22.70
2015,06,28,07,05,22.80
2015,06,28,07,06,22.80
2015,06,28,07,07,22.80
2015,06,28,07,08,22.80
2015,06,28,07,09,22.80
2015,06,28,07,10,22.80
2015,06,28,07,11,22.80
2015,06,28,07,12,22.90
2015,06,28,07,13,22.90
2015,06,28,07,14,22.90
2015,06,28,07,15,22.90
2015,06,28,07,16,22.90
2015,06,28,07,17,22.90
2015,06,28,07,18,22.90
2015,06,28,07,19,22.90
2015,06,28,07,20,22.90
2015,06,28,07,21,22.90
2015,06,28,07,22,22.90
2015,06,28,07,23,22.90
2015,06,28,07,24,22.90
2015,06,28,07,25,22.90
2015,06,28,07,26,23.00
2015,06,28,07,27,23.00
2015,06,28,07,28,23.00
2015,06,28,07,29,23.00
2015,06,28,07,30,23.00
2015,06,28,07,31,23.00
2015,06,28,07,32,23.00
2015,06,28,07,33,23.00
2015,06,28,07,34,23.10
2015,06,28,07,35,23.00
2015,06,28,07,36,23.10
2015,06,28,07,37,23.10
2015,06,28,07,38,23.10
2015,06,28,07,39,23.10
2015,06,28,07,40,23.10
2015,06,28,07,41,23.10
2015,06,28,07,42,23.10
2015,06,28,07,43,23.10
2015,06,28,07,44,23.10
2015,06,28,07,45,23.10
2015,06,28,07,46,23.10
2015,06,28,07,47,23.10
2015,06,28,07,48,23.10
2015,06,28,07,49,23.10
2015,06,28,07,50,23.10
2015,06,28,07,51,23.10
2015,06,28,07,52,23.10
2015,06,28,07,53,23.10
2015,06,28,07,54,23.10
2015,06,28,07,55,23.10
2015,06,28,07,56,23.20
2015,06,28,07,57,23.20
2015,06,28,07,58,23.20
2015,06,28,07,59,23.30
2015,06,28,08,00,23.30
2015,06,28,08,01,23.30
2015,06,28,08,02,23.30
2015,06,28,08,03,23.40
2015,06,28,08,04,23.40
2015,06,28,08,05,23.40
2015,06,28,08,06,23.50
2015,06,28,08,07,23.60
2015,06,28,08,08,23.60
2015,06,28,08,09,23.70
2015,06,28,08,10,23.70
2015,06,28,08,11,23.80
2015,06,28,08,12,23.80
2015,06,28,08,13,23.90
2015,06,28,08,14,23.90
2015,06,28,08,15,23.90
2015,06,28,08,16,23.90
2015,06,28,08,17,24.00
2015,06,28,08,18,24.00
2015,06,28,08,19,24.10
2015,06,28,08,20,24.10
2015,06,28,08,21,24.10
2015,06,28,08,22,24.10
2015,06,28,08,23,24.20
2015,06,28,08,24,24.20
2015,06,28,08,25,24.20
2015,06,28,08,26,24.20
2015,06,28,08,27,24.20
2015,06,28,08,28,24.20
2015,06,28,08,29,24.20
2015,06,28,08,30,24.20
2015,06,28,08,31,24.20
2015,06,28,08,32,24.20
2015,06,28,08,33,24.20
2015,06,28,08,34,24.30
2015,06,28,08,35,24.30
2015,06,28,08,36,24.30
2015,06,28,08,37,24.30
2015,06,28,08,38,24.40
2015,06,28,08,39,24.40
2015,06,28,08,40,24.50
2015,06,28,08,41,24.50
2015,06,28,08,42,24.60
2015,06,28,08,43,24.60
2015,06,28,08,44,24.70
2015,06,28,08,45,24.70
2015,06,28,08,46,24.70
2015,06,28,08,47,24.80
2015,06,28,08,48,24.80
2015,06,28,08,49,24.80
2015,06,28,08,50,24.80
2015,06,28,08,51,24.90
2015,06,28,08,52,24.90
2015,06,28,08,53,25.00
2015,06,28,08,54,25.00
2015,06,28,08,55,25.10
2015,06,28,08,56,25.10
2015,06,28,08,57,25.20
2015,06,28,08,58,25.20
2015,06,28,08,59,25.30
2015,06,28,09,00,25.30
2015,06,28,09,01,25.40
2015,06,28,09,02,25.40
2015,06,28,09,03,25.50
2015,06,28,09,04,25.50
2015,06,28,09,05,25.60
2015,06,28,09,06,25.60
2015,06,28,09,07,25.70
2015,06,28,09,08,25.70
2015,06,28,09,09,25.70
2015,06,28,09,10,25.80
2015,06,28,09,11,25.80
2015,06,28,09,12,25.80
2015,06,28,09,13,25.70
2015,06,28,09,14,25.70
2015,06,28,09,15,25.70
2015,06,28,09,16,25.70
2015,06,28,09,17,25.70
2015,06,28,09,18,25.80
2015,06,28,09,19,25.80
2015,06,28,09,20,25.80
2015,06,28,09,21,25.90
2015,06,28,09,22,25.90
2015,06,28,09,23,26.00
2015,06,28,09,24,26.00
2015,06,28,09,25,26.10
2015,06,28,09,26,26.10
2015,06,28,09,27,26.10
2015,06,28,09,28,26.10
2015,06,28,09,29,26.00
2015,06,28,09,30,26.00
2015,06,28,09,31,25.90
2015,06,28,09,32,25.90
2015,06,28,09,33,25.90
2015,06,28,09,34,25.90
2015,06,28,09,35,25.90
2015,06,28,09,36,25.90
2015,06,28,09,37,25.90
2015,06,28,09,38,25.90
2015,06,28,09,39,25.90
2015,06,28,09,40,25.90
2015,06,28,09,41,25.90
2015,06,28,09,42,25.90
2015,06,28,09,43,25.90
2015,06,28,09,44,26.00
2015,06,28,09,45,26.00
2015,06,28,09,46,26.00
2015,06,28,09,47,26.00
2015,06,28,09,48,26.10
2015,06,28,09,49,26.10
2015,06,28,09,50,26.10
2015,06,28,09,51,26.10
2015,06,28,09,52,26.10
2015,06,28,09,53,26.20
2015,06,28,09,54,26.20
2015,06,28,09,55,26.20
2015,06,28,09,56,26.20
2015,06,28,09,57,26.30
2015,06,28,09,58,26.30
2015,06,28,09,59,26.30
2015,06,28,10,00,26.40
2015,06,28,10,01,26.40
2015,06,28,10,02,26.50
2015,06,28,10,03,26.50
2015,06,28,10,04,26.60
2015,06,28,10,05,26.70
2015,06,28,10,06,26.70
2015,06,28,10,07,26.80
2015,06,28,10,08,26.80
2015,06,28,10,09,26.90
2015,06,28,10,10,26.90
2015,06,28,10,11,27.00
2015,06,28,10,12,27.10
2015,06,28,10,13,27.10
2015,06,28,10,14,27.20
2015,06,28,10,15,27.30
2015,06,28,10,16,27.30
2015,06,28,10,17,27.40
2015,06,28,10,18,27.40
2015,06,28,10,19,27.50
2015,06,28,10,20,27.60
2015,06,28,10,21,27.70
2015,06,28,10,22,27.70
2015,06,28,10,23,27.80
2015,06,28,10,24,27.80
2015,06,28,10,25,27.90
2015,06,28,10,26,27.90
2015,06,28,10,27,27.90
2015,06,28,10,28,27.90
2015,06,28,10,29,27.90
2015,06,28,10,30,27.90
2015,06,28,10,31,27.90
2015,06,28,10,32,27.90
2015,06,28,10,33,27.90
2015,06,28,10,34,27.90
2015,06,28,10,35,27.90
2015,06,28,10,36,27.90
2015,06,28,10,37,27.90
2015,06,28,10,38,27.90
2015,06,28,10,39,27.90
2015,06,28,10,40,27.90
2015,06,28,10,41,27.90
2015,06,28,10,42,27.90
2015,06,28,10,43,27.90
2015,06,28,10,44,27.80
2015,06,28,10,45,27.80
2015,06,28,10,46,27.80
2015,06,28,10,47,27.70
2015,06,28,10,48,27.60
2015,06,28,10,49,27.60
2015,06,28,10,50,27.50
2015,06,28,10,51,27.40
2015,06,28,10,52,27.40
2015,06,28,10,53,27.30
2015,06,28,10,54,27.30
2015,06,28,10,55,27.20
2015,06,28,10,56,27.20
2015,06,28,10,57,27.10
2015,06,28,10,58,27.10
2015,06,28,10,59,27.00
2015,06,28,11,00,26.90
2015,06,28,11,01,26.90
2015,06,28,11,02,26.90
2015,06,28,11,03,26.90
2015,06,28,11,04,27.00
2015,06,28,11,05,27.00
2015,06,28,11,06,27.10
2015,06,28,11,07,27.10
2015,06,28,11,08,27.20
2015,06,28,11,09,27.20
2015,06,28,11,10,27.20
2015,06,28,11,11,27.20
2015,06,28,11,12,27.20
2015,06,28,11,13,27.20
2015,06,28,11,14,27.10
2015,06,28,11,15,26.90
2015,06,28,11,16,26.80
2015,06,28,11,17,26.60
2015,06,28,11,18,26.40
2015,06,28,11,19,26.30
2015,06,28,11,20,26.20
2015,06,28,11,21,26.00
2015,06,28,11,22,25.80
2015,06,28,11,23,25.70
2015,06,28,11,24,25.50
2015,06,28,11,25,25.40
2015,06,28,11,26,25.30
2015,06,28,11,27,25.20
2015,06,28,11,28,25.00
2015,06,28,11,29,24.90
2015,06,28,11,30,24.80
2015,06,28,11,31,24.70
2015,06,28,11,32,24.60
2015,06,28,11,33,24.50
2015,06,28,11,34,24.50
2015,06,28,11,35,24.40
2015,06,28,11,36,24.30
2015,06,28,11,37,24.20
2015,06,28,11,38,24.20
2015,06,28,11,39,24.10
2015,06,28,11,40,24.10
2015,06,28,11,41,24.00
2015,06,28,11,42,24.00
2015,06,28,11,43,24.00
2015,06,28,11,44,24.00
2015,06,28,11,45,24.00
2015,06,28,11,46,24.00
2015,06,28,11,47,24.00
2015,06,28,11,48,24.00
2015,06,28,11,49,24.00
2015,06,28,11,50,24.00
2015,06,28,11,51,24.00
2015,06,28,11,52,24.00
2015,06,28,11,53,24.10
2015,06,28,11,54,24.10
2015,06,28,11,55,24.10
2015,06,28,11,56,24.10
2015,06,28,11,57,24.00
2015,06,28,11,58,24.00
2015,06,28,11,59,24.00
2015,06,28,12,00,24.00
2015,06,28,12,01,24.00
2015,06,28,12,02,24.00
2015,06,28,12,03,24.00
2015,06,28,12,04,24.00
2015,06,28,12,05,24.00
2015,06,28,12,06,24.00
2015,06,28,12,07,24.00
2015,06,28,12,08,23.90
2015,06,28,12,09,23.90
2015,06,28,12,10,23.80
2015,06,28,12,11,23.80
2015,06,28,12,12,23.80
2015,06,28,12,13,23.70
2015,06,28,12,14,23.60
2015,06,28,12,15,23.60
2015,06,28,12,16,23.60
2015,06,28,12,17,23.50
2015,06,28,12,18,23.50
2015,06,28,12,19,23.50
2015,06,28,12,20,23.40
2015,06,28,12,21,23.40
2015,06,28,12,22,23.40
2015,06,28,12,23,23.40
2015,06,28,12,24,23.40
2015,06,28,12,25,23.40
2015,06,28,12,26,23.40
2015,06,28,12,27,23.40
2015,06,28,12,28,23.30
2015,06,28,12,29,23.30
2015,06,28,12,30,23.30
2015,06,28,12,31,23.30
2015,06,28,12,32,23.30
2015,06,28,12,33,23.20
2015,06,28,12,34,23.20
2015,06,28,12,35,23.20
2015,06,28,12,36,23.20
2015,06,28,12,37,23.30
2015,06,28,12,38,23.30
2015,06,28,12,39,23.30
2015,06,28,12,40,23.30
2015,06,28,12,41,23.30
2015,06,28,12,42,23.30
2015,06,28,12,43,23.30
2015,06,28,12,44,23.30
2015,06,28,12,45,23.30
2015,06,28,12,46,23.40
2015,06,28,12,47,23.40
2015,06,28,12,48,23.50
2015,06,28,12,49,23.50
2015,06,28,12,50,23.60
2015,06,28,12,51,23.60
2015,06,28,12,52,23.70
2015,06,28,12,53,23.70
2015,06,28,12,54,23.80
2015,06,28,12,55,23.80
2015,06,28,12,56,23.90
2015,06,28,12,57,24.00
2015,06,28,12,58,24.10
2015,06,28,12,59,24.10
2015,06,28,13,00,24.20
2015,06,28,13,01,24.20
2015,06,28,13,02,24.20
2015,06,28,13,03,24.30
2015,06,28,13,04,24.30
2015,06,28,13,05,24.30
2015,06,28,13,06,24.30
2015,06,28,13,07,24.40
2015,06,28,13,08,24.40
2015,06,28,13,09,24.40
2015,06,28,13,10,24.40
2015,06,28,13,11,24.40
2015,06,28,13,12,24.50
2015,06,28,13,13,24.50
2015,06,28,13,14,24.60
2015,06,28,13,15,24.60
2015,06,28,13,16,24.60
2015,06,28,13,17,24.60
2015,06,28,13,18,24.60
2015,06,28,13,19,24.60
2015,06,28,13,20,24.70
2015,06,28,13,21,24.70
2015,06,28,13,22,24.70
2015,06,28,13,23,24.70
2015,06,28,13,24,24.70
2015,06,28,13,25,24.70
2015,06,28,13,26,24.80
2015,06,28,13,27,24.80
2015,06,28,13,28,24.80
2015,06,28,13,29,24.80
2015,06,28,13,30,24.80
2015,06,28,13,31,24.80
2015,06,28,13,32,24.80
2015,06,28,13,33,24.90
2015,06,28,13,34,24.90
2015,06,28,13,35,24.90
2015,06,28,13,36,24.90
2015,06,28,13,37,24.90
2015,06,28,13,38,24.90
2015,06,28,13,39,24.90
2015,06,28,13,40,24.80
2015,06,28,13,41,24.80
2015,06,28,13,42,24.80
2015,06,28,13,43,24.80
2015,06,28,13,44,24.80
2015,06,28,13,45,24.80
2015,06,28,13,46,24.80
2015,06,28,13,47,24.70
2015,06,28,13,48,24.70
2015,06,28,13,49,24.70
2015,06,28,13,50,24.70
2015,06,28,13,51,24.70
2015,06,28,13,52,24.70
2015,06,28,13,53,24.70
2015,06,28,13,54,24.70
2015,06,28,13,55,24.70
2015,06,28,13,56,24.70
2015,06,28,13,57,24.70
2015,06,28,13,58,24.70
2015,06,28,13,59,24.70
2015,06,28,14,00,24.70
2015,06,28,14,01,24.70
2015,06,28,14,02,24.70
2015,06,28,14,03,24.70
2015,06,28,14,04,24.70
2015,06,28,14,05,24.70
2015,06,28,14,06,24.70
2015,06,28,14,07,24.70
2015,06,28,14,08,24.70
2015,06,28,14,09,24.70
2015,06,28,14,10,24.70
2015,06,28,14,11,24.70
2015,06,28,14,12,24.80
2015,06,28,14,13,24.80
2015,06,28,14,14,24.80
2015,06,28,14,15,24.80
2015,06,28,14,16,24.80
2015,06,28,14,17,24.80
2015,06,28,14,18,24.80
2015,06,28,14,19,24.90
2015,06,28,14,20,24.90
2015,06,28,14,21,24.90
2015,06,28,14,22,25.00
2015,06,28,14,23,25.00
2015,06,28,14,24,25.10
2015,06,28,14,25,25.10
2015,06,28,14,26,25.10
2015,06,28,14,27,25.10
2015,06,28,14,28,25.10
2015,06,28,14,29,25.10
2015,06,28,14,30,25.10
2015,06,28,14,31,25.30
2015,06,28,14,32,25.30
2015,06,28,14,33,25.30
2015,06,28,14,34,25.30
2015,06,28,14,35,25.30
2015,06,28,14,36,25.30
2015,06,28,14,37,25.30
2015,06,28,14,38,25.30
2015,06,28,14,39,25.30
2015,06,28,14,40,25.20
2015,06,28,14,41,25.20
2015,06,28,14,42,25.20
2015,06,28,14,43,25.20
2015,06,28,14,44,25.20
2015,06,28,14,45,25.20
2015,06,28,14,46,25.10
2015,06,28,14,47,25.10
2015,06,28,14,48,25.10
2015,06,28,14,49,25.10
2015,06,28,14,50,25.00
2015,06,28,14,51,25.00
2015,06,28,14,52,24.90
2015,06,28,14,53,24.90
2015,06,28,14,54,24.80
2015,06,28,14,55,24.70
2015,06,28,14,56,24.70
2015,06,28,14,57,24.60
2015,06,28,14,58,24.60
2015,06,28,14,59,24.60
2015,06,28,15,00,24.50
2015,06,28,15,01,24.50
2015,06,28,15,02,24.50
2015,06,28,15,03,24.50
2015,06,28,15,04,24.50
2015,06,28,15,05,24.50
2015,06,28,15,06,24.40
2015,06,28,15,07,24.40
2015,06,28,15,08,24.30
2015,06,28,15,09,24.30
2015,06,28,15,10,24.20
2015,06,28,15,11,24.20
2015,06,28,15,12,24.10
2015,06,28,15,13,24.10
2015,06,28,15,14,24.00
2015,06,28,15,15,24.00
2015,06,28,15,16,23.90
2015,06,28,15,17,23.90
2015,06,28,15,18,23.80
2015,06,28,15,19,23.80
2015,06,28,15,20,23.80
2015,06,28,15,21,23.80
2015,06,28,15,22,23.80
2015,06,28,15,23,23.70
2015,06,28,15,24,23.70
2015,06,28,15,25,23.70
2015,06,28,15,26,23.70
2015,06,28,15,27,23.70
2015,06,28,15,28,23.70
2015,06,28,15,29,23.70
2015,06,28,15,30,23.70
2015,06,28,15,31,23.70
2015,06,28,15,32,23.70
2015,06,28,15,33,23.70
2015,06,28,15,34,23.70
2015,06,28,15,35,23.70
2015,06,28,15,36,23.70
2015,06,28,15,37,23.70
2015,06,28,15,38,23.70
2015,06,28,15,39,23.70
2015,06,28,15,40,23.70
2015,06,28,15,41,23.70
2015,06,28,15,42,23.70
2015,06,28,15,43,23.70
2015,06,28,15,44,23.70
2015,06,28,15,45,23.70
2015,06,28,15,46,23.70
2015,06,28,15,47,23.70
2015,06,28,15,48,23.70
2015,06,28,15,49,23.70
2015,06,28,15,50,23.70
2015,06,28,15,51,23.60
2015,06,28,15,52,23.60
2015,06,28,15,53,23.60
2015,06,28,15,54,23.60
2015,06,28,15,55,23.50
2015,06,28,15,56,23.50
2015,06,28,15,57,23.50
2015,06,28,15,58,23.50
2015,06,28,15,59,23.50
2015,06,28,16,00,23.50
2015,06,28,16,01,23.40
2015,06,28,16,02,23.40
2015,06,28,16,03,23.40
2015,06,28,16,04,23.40
2015,06,28,16,05,23.30
2015,06,28,16,06,23.30
2015,06,28,16,07,23.30
2015,06,28,16,08,23.20
2015,06,28,16,09,23.20
2015,06,28,16,10,23.20
2015,06,28,16,11,23.10
2015,06,28,16,12,23.10
2015,06,28,16,13,23.00
2015,06,28,16,14,23.00
2015,06,28,16,15,22.90
2015,06,28,16,16,22.90
2015,06,28,16,17,22.90
2015,06,28,16,18,22.90
2015,06,28,16,19,22.80
2015,06,28,16,20,22.80
2015,06,28,16,21,22.80
2015,06,28,16,22,22.80
2015,06,28,16,23,22.70
2015,06,28,16,24,22.70
2015,06,28,16,25,22.70
2015,06,28,16,26,22.70
2015,06,28,16,27,22.70
2015,06,28,16,28,22.60
2015,06,28,16,29,22.60
2015,06,28,16,30,22.60
2015,06,28,16,31,22.60
2015,06,28,16,32,22.60
2015,06,28,16,33,22.60
2015,06,28,16,34,22.60
2015,06,28,16,35,22.60
2015,06,28,16,36,22.60
2015,06,28,16,37,22.60
2015,06,28,16,38,22.60
2015,06,28,16,39,22.60
2015,06,28,16,40,22.60
2015,06,28,16,41,22.60
2015,06,28,16,42,22.70
2015,06,28,16,43,22.70
2015,06,28,16,44,22.70
2015,06,28,16,45,22.70
2015,06,28,16,46,22.70
2015,06,28,16,47,22.80
2015,06,28,16,48,22.80
2015,06,28,16,49,22.80
2015,06,28,16,50,22.80
2015,06,28,16,51,22.80
2015,06,28,16,52,22.90
2015,06,28,16,53,22.90
2015,06,28,16,54,22.90
2015,06,28,16,55,22.90
2015,06,28,16,56,22.90
2015,06,28,16,57,22.80
2015,06,28,16,58,22.80
2015,06,28,16,59,22.80
2015,06,28,17,00,22.70
2015,06,28,17,01,22.70
2015,06,28,17,02,22.70
2015,06,28,17,03,22.70
2015,06,28,17,04,22.70
2015,06,28,17,05,22.70
2015,06,28,17,06,22.70
2015,06,28,17,07,22.70
2015,06,28,17,08,22.70
2015,06,28,17,09,22.70
2015,06,28,17,10,22.70
2015,06,28,17,11,22.70
2015,06,28,17,12,22.70
2015,06,28,17,13,22.80
2015,06,28,17,14,22.80
2015,06,28,17,15,22.80
2015,06,28,17,16,22.80
2015,06,28,17,17,22.90
2015,06,28,17,18,22.90
2015,06,28,17,19,22.90